Location: Ar Ranvel
(48.3000°N, 4.8833°W)
Time: 15:27:50
(UTC+00:00)

Cosmos 1626 - Pass Details

Date: 16 June 2021
Orbit: 489 x 493 km, 82.5° (Epoch: 30 July)

Event Time Altitude Azimuth Distance (km) Brightness Sun altitude
Exits shadow 23:01:37 - 229° (SW) 1,896 4.8 -16.2°
Reaches altitude 10° 23:02:14 10° 234° (SW) 1,685 4.6 -16.2°
Maximum altitude 23:05:15 23° 289° (WNW) 1,079 4.2 -16.4°
Drops below altitude 10° 23:08:17 10° 344° (NNW) 1,699 6.2 -16.5°
Sets 23:10:44 0° 359° (N) 2,587 7.3 -16.6°
